Ramona, CA

6:45 PM PDT on October 19, 2017 (GMT -0700)
Ramona

Weather History for KRNM - December, 2013

Change the Weather History Date:

Monday, December 16, 2013

  Actual Average Record
Temperature  
Mean Temperature 66 °F 49 °F  
Max Temperature 86 °F 64 °F 86 °F (2013)
Min Temperature 45 °F 34 °F 29 °F (1975)
Degree Days  
Heating Degree Days 0 16  
Month to date heating degree days 239 243  
Since 1 July heating degree days 668 654  
Cooling Degree Days 1 0  
Month to date cooling degree days 1 0  
Year to date cooling degree days 899 850  
Growing Degree Days 15 (Base 50)    
Moisture  
Dew Point 18 °F    
Average Humidity 23    
Maximum Humidity 38    
Minimum Humidity 8    
Precipitation  
Precipitation 0.00 in 0.07 in 1.60 in (2016)
Month to date precipitation 0.15 0.86  
Year to date precipitation 6.57 14.67  
Since 1 July precipitation 2.07  
Snow  
Snow 0.00 in - - ()
Month to date snowfall 0.0  
Year to date snowfall 0.0  
Snow Depth 0.00 in    
Sea Level Pressure  
Sea Level Pressure 30.07 in    
Wind  
Wind Speed 9 mph (East)    
Max Wind Speed 20 mph    
Max Gust Speed 24 mph    
Visibility 10 miles    
Events      
T = Trace of Precipitation, MM = Missing Value Source: NWS Daily Summary

Daily Weather History Graph

Daily Weather History Graph

Search for Another Location

Airport or City:

Trip Planner

Search our weather history database for the weather conditions in past years. The results will help you decide how hot, cold, wet, or windy it might be!

Date:

Astronomy

Dec. 16, 2013 Rise Set
Actual Time 6:44 AM PST 4:42 PM PST
Civil Twilight 6:16 AM PST 5:10 PM PST
Nautical Twilight 5:45 AM PST 5:41 PM PST
Astronomical Twilight 5:15 AM PST 6:11 PM PST
Moon 4:34 PM PST (12/16) 5:59 AM PST (12/16)
Length of Visible Light 10h 53m
Length of Day
9h 58m
Full, 100% of the Moon is Illuminated
Dec 16
Full
Dec 17
Full
Dec 25
Last Quarter
Jan 1
New
Jan 7
First Quarter

Hourly Weather History & Observations

Time (PST) Temp. Windchill Dew Point Humidity Pressure Visibility Wind Dir Wind Speed Gust Speed Precip Events Conditions
12:53 AM 55.0 °F - 19.9 °F 25% 30.08 in 10.0 mi SSE 8.1 mph - N/A   Clear
1:53 AM 50.0 °F - 21.0 °F 32% 30.09 in 10.0 mi Calm Calm - N/A   Clear
2:53 AM 46.0 °F 44.8 °F 21.0 °F 37% 30.09 in 10.0 mi SE 3.5 mph - N/A   Clear
3:53 AM 46.0 °F 43.1 °F 23.0 °F 40% 30.08 in 10.0 mi ESE 5.8 mph - N/A   Clear
4:53 AM 57.9 °F - 21.0 °F 24% 30.05 in 10.0 mi East 10.4 mph 17.3 mph N/A   Clear
5:53 AM 70.0 °F - 18.0 °F 14% 30.06 in 10.0 mi ENE 11.5 mph - N/A   Clear
6:53 AM 70.0 °F - 18.0 °F 14% 30.07 in 10.0 mi NE 11.5 mph - N/A   Clear
7:53 AM 73.9 °F - 18.0 °F 12% 30.09 in 10.0 mi East 12.7 mph - N/A   Clear
8:53 AM 73.9 °F - 23.0 °F 15% 30.10 in 10.0 mi SSE 8.1 mph - N/A   Clear
9:53 AM 79.0 °F - 19.0 °F 11% 30.11 in 10.0 mi SE 6.9 mph - N/A   Clear
10:53 AM 82.9 °F - 17.1 °F 9% 30.09 in 10.0 mi East 15.0 mph - N/A   Clear
11:53 AM 82.9 °F - 16.0 °F 8% 30.07 in 10.0 mi East 13.8 mph - N/A   Clear
12:53 PM 84.9 °F - 15.1 °F 7% 30.05 in 10.0 mi East 13.8 mph - N/A   Clear
1:53 PM 84.9 °F - 16.0 °F 8% 30.05 in 10.0 mi East 15.0 mph - N/A   Clear
2:53 PM 81.0 °F - 15.1 °F 8% 30.06 in 10.0 mi East 8.1 mph - N/A   Clear
3:53 PM 78.1 °F - 15.1 °F 9% 30.05 in 10.0 mi East 10.4 mph 18.4 mph N/A   Clear
4:53 PM 75.0 °F - 15.1 °F 10% 30.04 in 10.0 mi East 10.4 mph - N/A   Clear
5:53 PM 73.0 °F - 16.0 °F 11% 30.06 in 10.0 mi NNE 6.9 mph - N/A   Clear
6:53 PM 75.0 °F - 15.1 °F 10% 30.05 in 10.0 mi East 13.8 mph 18.4 mph N/A   Clear
7:53 PM 75.9 °F - 15.1 °F 10% 30.06 in 10.0 mi East 11.5 mph - N/A   Clear
8:53 PM 70.0 °F - 16.0 °F 13% 30.08 in 10.0 mi East 4.6 mph - N/A   Clear
9:53 PM 59.0 °F - 18.0 °F 20% 30.09 in 10.0 mi Calm Calm - N/A   Clear
10:53 PM 53.1 °F - 19.9 °F 27% 30.10 in 10.0 mi Calm Calm - N/A   Clear
11:53 PM 51.1 °F - 21.9 °F 32% 30.09 in 10.0 mi Calm Calm - N/A   Clear